Time,TemperatureF,DewpointF,PressureIn,WindDirection,WindDirectionDegrees,WindSpeedMPH,WindSpeedGustMPH,Humidity,HourlyPrecipIn,Conditions,Clouds,dailyrainin,SoftwareType,DateUTC
2013-07-28 00:03:00,94.5,56.0,29.71,SSE,155,5.0,-999.0,27,-99.99,,,0.00,weatherlink.com 1.10,2013-07-28 07:03:00,
2013-07-28 00:18:00,93.8,56.0,29.70,SSE,157,6.0,-999.0,28,-99.99,,,0.00,weatherlink.com 1.10,2013-07-28 07:18:00,
2013-07-28 00:33:00,93.3,56.0,29.70,SSE,158,5.0,-999.0,28,-99.99,,,0.00,weatherlink.com 1.10,2013-07-28 07:33:00,
2013-07-28 00:48:00,93.1,55.0,29.70,SSE,163,6.0,-999.0,28,-99.99,,,0.00,weatherlink.com 1.10,2013-07-28 07:48:00,
2013-07-28 01:03:00,92.9,55.0,29.70,SSE,163,6.0,-999.0,28,-99.99,,,0.00,weatherlink.com 1.10,2013-07-28 08:03:00,
2013-07-28 01:18:00,92.5,55.0,29.69,SSE,163,0.0,-999.0,28,-99.99,,,0.00,weatherlink.com 1.10,2013-07-28 08:18:00,
2013-07-28 01:33:00,92.2,55.0,29.70,SSE,163,0.0,-999.0,28,-99.99,,,0.00,weatherlink.com 1.10,2013-07-28 08:33:00,
2013-07-28 01:48:00,91.8,55.0,29.69,SSE,163,5.0,-999.0,29,-99.99,,,0.00,weatherlink.com 1.10,2013-07-28 08:48:00,
2013-07-28 02:03:00,91.7,55.0,29.69,SSE,163,5.0,-999.0,29,-99.99,,,0.00,weatherlink.com 1.10,2013-07-28 09:03:00,
2013-07-28 02:18:00,91.5,55.0,29.69,SSE,159,6.0,-999.0,29,-99.99,,,0.00,weatherlink.com 1.10,2013-07-28 09:18:00,
2013-07-28 02:33:00,91.3,55.0,29.69,SSE,157,5.0,-999.0,29,-99.99,,,0.00,weatherlink.com 1.10,2013-07-28 09:33:00,
2013-07-28 02:48:00,91.1,56.0,29.69,SSE,154,5.0,-999.0,30,-99.99,,,0.00,weatherlink.com 1.10,2013-07-28 09:48:00,
2013-07-28 03:03:00,90.9,56.0,29.69,SSE,159,10.0,-999.0,31,-99.99,,,0.00,weatherlink.com 1.10,2013-07-28 10:03:00,
2013-07-28 03:18:00,90.8,56.0,29.69,South,169,7.0,-999.0,31,-99.99,,,0.00,weatherlink.com 1.10,2013-07-28 10:18:00,
2013-07-28 03:33:00,90.6,57.0,29.69,SSE,161,6.0,-999.0,32,-99.99,,,0.00,weatherlink.com 1.10,2013-07-28 10:33:00,
2013-07-28 03:48:00,90.2,57.0,29.69,SSE,163,5.0,-999.0,32,-99.99,,,0.00,weatherlink.com 1.10,2013-07-28 10:48:00,
2013-07-28 04:03:00,89.5,58.0,29.70,SSE,163,1.0,-999.0,34,-99.99,,,0.00,weatherlink.com 1.10,2013-07-28 11:03:00,
2013-07-28 04:18:00,88.8,57.0,29.69,SSE,163,0.0,-999.0,34,-99.99,,,0.00,weatherlink.com 1.10,2013-07-28 11:18:00,
2013-07-28 04:33:00,88.5,58.0,29.70,SSE,163,0.0,-999.0,35,-99.99,,,0.00,weatherlink.com 1.10,2013-07-28 11:33:00,
2013-07-28 04:48:00,88.3,57.0,29.69,SSE,163,1.0,-999.0,35,-99.99,,,0.00,weatherlink.com 1.10,2013-07-28 11:48:00,
2013-07-28 05:03:00,88.2,57.0,29.69,SSE,163,5.0,-999.0,35,-99.99,,,0.00,weatherlink.com 1.10,2013-07-28 12:03:00,
2013-07-28 05:18:00,87.8,58.0,29.70,SSE,163,0.0,-999.0,36,-99.99,,,0.00,weatherlink.com 1.10,2013-07-28 12:18:00,
2013-07-28 05:33:00,87.0,58.0,29.70,SSE,163,0.0,-999.0,37,-99.99,,,0.00,weatherlink.com 1.10,2013-07-28 12:33:00,
2013-07-28 05:48:00,86.4,58.0,29.70,SSE,163,0.0,-999.0,38,-99.99,,,0.00,weatherlink.com 1.10,2013-07-28 12:48:00,
2013-07-28 06:03:00,86.0,59.0,29.71,SSE,163,0.0,-999.0,40,-99.99,,,0.00,weatherlink.com 1.10,2013-07-28 13:03:00,
2013-07-28 06:18:00,85.7,59.0,29.70,SSE,163,4.0,-999.0,40,-99.99,,,0.00,weatherlink.com 1.10,2013-07-28 13:18:00,
2013-07-28 06:33:00,86.1,59.0,29.71,SSE,163,2.0,-999.0,40,-99.99,,,0.00,weatherlink.com 1.10,2013-07-28 13:33:00,
2013-07-28 06:48:00,86.9,60.0,29.71,SSE,163,0.0,-999.0,40,-99.99,,,0.00,weatherlink.com 1.10,2013-07-28 13:48:00,
2013-07-28 07:03:00,88.1,59.0,29.72,SSE,163,1.0,-999.0,37,-99.99,,,0.00,weatherlink.com 1.10,2013-07-28 14:03:00,
2013-07-28 07:18:00,89.7,59.0,29.72,SSE,163,0.0,-999.0,35,-99.99,,,0.00,weatherlink.com 1.10,2013-07-28 14:18:00,
2013-07-28 07:33:00,90.5,59.0,29.72,SSE,163,1.0,-999.0,35,-99.99,,,0.00,weatherlink.com 1.10,2013-07-28 14:33:00,
2013-07-28 07:48:00,91.3,59.0,29.73,SSE,163,5.0,-999.0,34,-99.99,,,0.00,weatherlink.com 1.10,2013-07-28 14:48:00,
2013-07-28 08:03:00,93.1,58.0,29.73,SSE,166,7.0,-999.0,31,-99.99,,,0.00,weatherlink.com 1.10,2013-07-28 15:03:00,
2013-07-28 08:18:00,94.3,59.0,29.73,South,172,2.0,-999.0,31,-99.99,,,0.00,weatherlink.com 1.10,2013-07-28 15:18:00,
2013-07-28 08:33:00,95.2,58.0,29.73,South,174,1.0,-999.0,29,-99.99,,,0.00,weatherlink.com 1.10,2013-07-28 15:33:00,
2013-07-28 08:48:00,95.8,58.0,29.73,South,175,5.0,-999.0,28,-99.99,,,0.00,weatherlink.com 1.10,2013-07-28 15:48:00,
2013-07-28 09:03:00,96.5,57.0,29.73,South,187,4.0,-999.0,27,-99.99,,,0.00,weatherlink.com 1.10,2013-07-28 16:03:00,
2013-07-28 09:18:00,96.9,57.0,29.73,South,188,2.0,-999.0,26,-99.99,,,0.00,weatherlink.com 1.10,2013-07-28 16:18:00,
2013-07-28 09:34:00,97.7,56.0,29.73,South,186,3.0,-999.0,25,-99.99,,,0.00,weatherlink.com 1.10,2013-07-28 16:34:00,
2013-07-28 09:48:00,98.6,57.0,29.73,South,173,7.0,-999.0,25,-99.99,,,0.00,weatherlink.com 1.10,2013-07-28 16:48:00,
2013-07-28 10:04:00,98.9,57.0,29.73,South,182,5.0,-999.0,25,-99.99,,,0.00,weatherlink.com 1.10,2013-07-28 17:04:00,
2013-07-28 10:18:00,99.7,57.0,29.73,South,188,3.0,-999.0,24,-99.99,,,0.00,weatherlink.com 1.10,2013-07-28 17:18:00,
2013-07-28 10:33:00,100.1,57.0,29.73,South,179,7.0,-999.0,24,-99.99,,,0.00,weatherlink.com 1.10,2013-07-28 17:33:00,
2013-07-28 10:49:00,101.0,57.0,29.73,South,190,2.0,-999.0,23,-99.99,,,0.00,weatherlink.com 1.10,2013-07-28 17:49:00,
2013-07-28 11:03:00,101.8,58.0,29.72,SSW,196,2.0,-999.0,23,-99.99,,,0.00,weatherlink.com 1.10,2013-07-28 18:03:00,
2013-07-28 11:19:00,102.0,57.0,29.72,South,187,2.0,-999.0,22,-99.99,,,0.00,weatherlink.com 1.10,2013-07-28 18:19:00,
2013-07-28 11:33:00,103.3,56.0,29.72,South,173,0.0,-999.0,21,-99.99,,,0.00,weatherlink.com 1.10,2013-07-28 18:33:00,
2013-07-28 11:48:00,103.6,57.0,29.71,South,172,5.0,-999.0,21,-99.99,,,0.00,weatherlink.com 1.10,2013-07-28 18:48:00,
2013-07-28 12:04:00,103.9,56.0,29.71,SSE,166,2.0,-999.0,20,-99.99,,,0.00,weatherlink.com 1.10,2013-07-28 19:04:00,
2013-07-28 12:18:00,103.9,56.0,29.70,SSE,150,5.0,-999.0,20,-99.99,,,0.00,weatherlink.com 1.10,2013-07-28 19:18:00,
2013-07-28 12:34:00,104.8,55.0,29.70,SSE,161,9.0,-999.0,19,-99.99,,,0.00,weatherlink.com 1.10,2013-07-28 19:34:00,
2013-07-28 12:49:00,105.5,55.0,29.70,SSE,157,6.0,-999.0,19,-99.99,,,0.00,weatherlink.com 1.10,2013-07-28 19:49:00,
2013-07-28 13:03:00,105.9,56.0,29.69,SSE,165,4.0,-999.0,19,-99.99,,,0.00,weatherlink.com 1.10,2013-07-28 20:03:00,
2013-07-28 13:19:00,105.6,57.0,29.69,SSE,165,4.0,-999.0,20,-99.99,,,0.00,weatherlink.com 1.10,2013-07-28 20:19:00,
2013-07-28 13:34:00,105.5,58.0,29.68,South,170,2.0,-999.0,21,-99.99,,,0.00,weatherlink.com 1.10,2013-07-28 20:34:00,
2013-07-28 13:48:00,106.4,56.0,29.67,South,188,2.0,-999.0,19,-99.99,,,0.00,weatherlink.com 1.10,2013-07-28 20:48:00,
2013-07-28 14:04:00,106.6,56.0,29.67,South,177,8.0,-999.0,19,-99.99,,,0.00,weatherlink.com 1.10,2013-07-28 21:04:00,
2013-07-28 14:19:00,106.6,55.0,29.66,SSE,156,6.0,-999.0,18,-99.99,,,0.00,weatherlink.com 1.10,2013-07-28 21:19:00,
2013-07-28 14:34:00,107.3,54.0,29.65,WSW,253,4.0,-999.0,17,-99.99,,,0.00,weatherlink.com 1.10,2013-07-28 21:34:00,
2013-07-28 14:49:00,108.1,53.0,29.65,SSE,164,8.0,-999.0,16,-99.99,,,0.00,weatherlink.com 1.10,2013-07-28 21:49:00,
2013-07-28 15:04:00,108.8,54.0,29.64,South,176,8.0,-999.0,16,-99.99,,,0.00,weatherlink.com 1.10,2013-07-28 22:04:00,
2013-07-28 15:19:00,108.5,53.0,29.64,SSW,207,2.0,-999.0,16,-99.99,,,0.00,weatherlink.com 1.10,2013-07-28 22:19:00,
2013-07-28 15:34:00,107.6,53.0,29.63,SSW,194,5.0,-999.0,16,-99.99,,,0.00,weatherlink.com 1.10,2013-07-28 22:34:00,
2013-07-28 15:49:00,107.0,52.0,29.64,SW,216,6.0,-999.0,16,-99.99,,,0.00,weatherlink.com 1.10,2013-07-28 22:49:00,
2013-07-28 16:04:00,107.2,52.0,29.63,South,190,6.0,-999.0,16,-99.99,,,0.00,weatherlink.com 1.10,2013-07-28 23:04:00,
2013-07-28 16:19:00,107.0,52.0,29.62,SSW,201,3.0,-999.0,16,-99.99,,,0.00,weatherlink.com 1.10,2013-07-28 23:19:00,
2013-07-28 16:34:00,107.5,51.0,29.62,SSE,164,1.0,-999.0,15,-99.99,,,0.00,weatherlink.com 1.10,2013-07-28 23:34:00,
2013-07-28 16:49:00,107.1,50.0,29.62,South,178,6.0,-999.0,15,-99.99,,,0.00,weatherlink.com 1.10,2013-07-28 23:49:00,
2013-07-28 17:04:00,107.2,51.0,29.62,South,179,6.0,-999.0,15,-99.99,,,0.00,weatherlink.com 1.10,2013-07-29 00:04:00,
2013-07-28 17:19:00,107.1,50.0,29.61,South,179,5.0,-999.0,15,-99.99,,,0.00,weatherlink.com 1.10,2013-07-29 00:19:00,
2013-07-28 17:34:00,106.7,50.0,29.61,SSW,193,2.0,-999.0,15,-99.99,,,0.00,weatherlink.com 1.10,2013-07-29 00:34:00,
2013-07-28 17:49:00,107.4,51.0,29.61,SSW,203,1.0,-999.0,15,-99.99,,,0.00,weatherlink.com 1.10,2013-07-29 00:49:00,
2013-07-28 18:04:00,107.3,51.0,29.61,WSW,243,4.0,-999.0,15,-99.99,,,0.00,weatherlink.com 1.10,2013-07-29 01:04:00,
2013-07-28 18:34:00,105.7,49.0,29.61,SW,225,0.0,-999.0,15,-99.99,,,0.00,weatherlink.com 1.10,2013-07-29 01:34:00,
2013-07-28 18:49:00,105.3,51.0,29.61,WSW,238,0.0,-999.0,16,-99.99,,,0.00,weatherlink.com 1.10,2013-07-29 01:49:00,
2013-07-28 19:04:00,104.0,51.0,29.61,SW,225,0.0,-999.0,17,-99.99,,,0.00,weatherlink.com 1.10,2013-07-29 02:04:00,
2013-07-28 19:19:00,102.7,50.0,29.61,WSW,258,2.0,-999.0,17,-99.99,,,0.00,weatherlink.com 1.10,2013-07-29 02:19:00,
2013-07-28 19:34:00,101.9,49.0,29.62,WSW,252,2.0,-999.0,17,-99.99,,,0.00,weatherlink.com 1.10,2013-07-29 02:34:00,
2013-07-28 20:04:00,101.0,42.0,29.63,WSW,257,1.0,-999.0,13,-99.99,,,0.00,weatherlink.com 1.10,2013-07-29 03:04:00,
2013-07-28 20:19:00,100.5,37.0,29.63,WSW,245,5.0,-999.0,11,-99.99,,,0.00,weatherlink.com 1.10,2013-07-29 03:19:00,
2013-07-28 20:34:00,99.9,37.0,29.64,WSW,250,6.0,-999.0,11,-99.99,,,0.00,weatherlink.com 1.10,2013-07-29 03:34:00,
2013-07-28 21:04:00,98.8,38.0,29.65,WSW,248,2.0,-999.0,12,-99.99,,,0.00,weatherlink.com 1.10,2013-07-29 04:04:00,
2013-07-28 21:19:00,98.0,39.0,29.66,WSW,243,3.0,-999.0,13,-99.99,,,0.00,weatherlink.com 1.10,2013-07-29 04:19:00,
2013-07-28 21:34:00,97.6,39.0,29.67,SW,234,2.0,-999.0,13,-99.99,,,0.00,weatherlink.com 1.10,2013-07-29 04:34:00,
2013-07-28 21:49:00,97.2,39.0,29.67,SW,214,2.0,-999.0,13,-99.99,,,0.00,weatherlink.com 1.10,2013-07-29 04:49:00,
2013-07-28 22:04:00,96.8,36.0,29.67,SW,234,3.0,-999.0,12,-99.99,,,0.00,weatherlink.com 1.10,2013-07-29 05:04:00,
2013-07-28 22:19:00,96.3,36.0,29.68,WSW,245,1.0,-999.0,12,-99.99,,,0.00,weatherlink.com 1.10,2013-07-29 05:19:00,
2013-07-28 22:34:00,95.8,36.0,29.68,SSW,198,1.0,-999.0,12,-99.99,,,0.00,weatherlink.com 1.10,2013-07-29 05:34:00,
2013-07-28 22:49:00,95.1,37.0,29.68,SW,235,0.0,-999.0,13,-99.99,,,0.00,weatherlink.com 1.10,2013-07-29 05:49:00,
2013-07-28 23:04:00,94.5,38.0,29.68,SW,235,0.0,-999.0,14,-99.99,,,0.00,weatherlink.com 1.10,2013-07-29 06:04:00,
2013-07-28 23:19:00,93.8,40.0,29.69,SW,235,2.0,-999.0,15,-99.99,,,0.00,weatherlink.com 1.10,2013-07-29 06:19:00,
2013-07-28 23:34:00,92.8,39.0,29.69,South,171,1.0,-999.0,15,-99.99,,,0.00,weatherlink.com 1.10,2013-07-29 06:34:00,
2013-07-28 23:49:00,92.2,40.0,29.70,South,170,4.0,-999.0,16,-99.99,,,0.00,weatherlink.com 1.10,2013-07-29 06:49:00,